DW6400 Weather Reports


time (UTC)temp
C
wind
direction
speed
KPH
gust
KPH
rain 1hr
cm
rain 24hr
cm
rain mn
cm
humidity
%
barometer
mb
20181115054639 -1 139 0.0 3.2 0.00 0.00 0.00 65 1023.1
20181115053133 0 139 0.0 4.8 0.00 0.00 0.00 64 1023.1
20181115051623 0 139 0.0 4.8 0.00 0.00 0.00 62 1023.3
20181115050108 0 139 1.6 4.8 0.00 0.00 0.00 62 1023.4
20181115044642 0 139 1.6 6.4 0.00 0.00 0.00 63 1023.5
20181115043056 0 139 0.0 0.0 0.00 0.00 0.00 62 1023.5
20181115041605 0 139 0.0 4.8 0.00 0.00 0.00 62 1023.6
20181115040051 1 139 0.0 6.4 0.00 0.00 0.00 62 1023.6
20181115034542 1 139 1.6 8.0 0.00 0.00 0.00 62 1023.7
20181115033101 1 139 1.6 6.4 0.00 0.00 0.00 62 1023.7
20181115031551 2 139 0.0 3.2 0.00 0.00 0.00 59 1023.8
20181115030039 2 139 0.0 8.0 0.00 0.00 0.00 60 1024.0
20181115024530 2 139 3.2 8.0 0.00 0.00 0.00 60 1024.1
20181115023102 3 139 3.2 12.9 0.00 0.00 0.00 59 1024.3
20181115021537 3 139 3.2 11.3 0.00 0.00 0.00 59 1024.4
20181115020029 3 139 1.6 6.4 0.00 0.00 0.00 60 1024.6
20181115014523 3 139 0.0 4.8 0.00 0.00 0.00 58 1024.6
20181115013047 4 139 0.0 3.2 0.00 0.00 0.00 55 1024.8
20181115011525 5 139 0.0 0.0 0.00 0.00 0.00 52 1024.7
20181115010032 6 139 0.0 0.0 0.00 0.00 0.00 49 1024.6
20181115004531 6 139 0.0 0.0 0.00 0.00 0.00 47 1024.6
20181115003025 7 139 0.0 0.0 0.00 0.00 0.00 43 1024.6
20181115001514 8 139 0.0 0.0 0.00 0.00 0.00 40 1024.7
20181115000012 9 139 0.0 1.6 0.00 0.00 0.00 38 1024.7
20181114234529 11 139 0.0 0.0 0.00 0.00 0.00 35 1024.7
20181114233011 12 139 0.0 0.0 0.00 0.00 0.00 33 1024.8
20181114231534 12 139 0.0 3.2 0.00 0.00 0.00 29 1025.0
20181114230011 13 139 0.0 6.4 0.00 0.00 0.00 28 1025.1
20181114224525 15 139 0.0 3.2 0.00 0.00 0.00 23 1025.1
20181114223004 15 139 0.0 3.2 0.00 0.00 0.00 21 1025.3
20181114221509 15 139 0.0 3.2 0.00 0.00 0.00 18 1025.5
20181114220226 16 139 0.0 3.2 0.00 0.00 0.00 18 1025.8
20181114214631 15 139 0.0 3.2 0.00 0.00 0.00 21 1025.9
20181114213149 15 139 0.0 3.2 0.00 0.00 0.00 20 1026.0
20181114211622 15 139 1.6 4.8 0.00 0.00 0.00 22 1026.2
20181114210131 15 139 0.0 6.4 0.00 0.00 0.00 23 1026.6
20181114204601 15 139 1.6 6.4 0.00 0.00 0.00 22 1026.9
20181114203128 15 139 3.2 6.4 0.00 0.00 0.00 22 1027.1
20181114201634 15 139 0.0 6.4 0.00 0.00 0.00 25 1027.3
20181114200110 15 139 1.6 6.4 0.00 0.00 0.00 22 1027.7
20181114194641 15 139 1.6 6.4 0.00 0.03 0.00 23 1028.0
20181114193044 15 139 0.0 4.8 0.00 0.03 0.00 26 1028.5
20181114191538 15 139 1.6 6.4 0.00 0.03 0.00 24 1028.9
20181114190134 14 139 3.2 6.4 0.00 0.03 0.00 27 1029.4
20181114184537 13 139 1.6 4.8 0.00 0.08 0.00 28 1029.8
20181114181522 11 139 0.0 3.2 0.00 0.08 0.00 33 1030.5
20181114180011 10 139 1.6 4.8 0.00 0.08 0.00 35 1030.9
20181114174525 9 139 0.0 6.4 0.00 0.10 0.00 39 1031.2
20181114173002 8 139 0.0 3.2 0.00 0.10 0.00 42 1031.4
20181114171656 7 139 0.0 3.2 0.00 0.10 0.00 43 1031.6
20181114170114 6 139 0.0 3.2 0.00 0.10 0.00 50 1031.7
20181114164653 5 139 1.6 4.8 0.00 0.10 0.00 54 1032.0
20181114163136 4 139 0.0 4.8 0.00 0.10 0.00 55 1032.1
20181114161624 3 139 1.6 4.8 0.00 0.10 0.00 57 1032.5
20181114160124 2 139 0.0 6.4 0.00 0.10 0.00 61 1032.7
20181114154559 1 139 3.2 8.0 0.00 0.10 0.00 62 1033.0
20181114153051 0 139 0.0 8.0 0.00 0.10 0.00 67 1033.1
20181114151627 -1 139 0.0 4.8 0.00 0.10 0.00 70 1033.1
20181114150025 -1 139 0.0 4.8 0.00 0.10 0.00 71 1033.2
20181114144555 -2 139 1.6 11.3 0.00 0.10 0.00 71 1033.3
20181114143036 -2 139 3.2 11.3 0.00 0.10 0.00 72 1033.2
20181114141510 -3 139 1.6 11.3 0.00 0.10 0.00 73 1033.3
20181114140006 -3 139 1.6 12.9 0.00 0.10 0.00 73 1033.4
20181114134507 -3 139 3.2 11.3 0.00 0.10 0.00 73 1033.5
20181114133202 -3 139 1.6 8.0 0.00 0.10 0.00 74 1033.5
20181114131633 -3 139 3.2 8.0 0.00 0.10 0.00 75 1033.6
20181114130215 -3 139 1.6 3.2 0.00 0.10 0.00 74 1033.6
20181114124648 -3 139 0.0 6.4 0.00 0.10 0.00 74 1033.7
20181114123203 -3 139 3.2 8.0 0.00 0.10 0.00 74 1033.7
20181114121753 -3 139 1.6 8.0 0.00 0.10 0.00 74 1033.8
20181114120130 -3 139 3.2 8.0 0.00 0.10 0.00 75 1033.7
20181114114702 -3 139 0.0 4.8 0.00 0.10 0.00 74 1033.9
20181114113324 -3 139 0.0 14.5 0.00 0.10 0.00 74 1033.9
20181114111646 -3 139 1.6 8.0 0.00 0.10 0.00 75 1033.9
20181114110117 -4 139 3.2 8.0 0.00 0.10 0.00 77 1034.0
20181114104627 -4 139 3.2 8.0 0.00 0.10 0.00 77 1034.1
20181114103214 -3 139 3.2 6.4 0.00 0.10 0.00 74 1034.1
20181114101641 -3 139 3.2 8.0 0.00 0.10 0.00 75 1034.3
20181114100136 -3 139 1.6 6.4 0.00 0.10 0.00 75 1034.5
20181114094612 -3 139 1.6 4.8 0.00 0.10 0.00 75 1034.5
20181114093145 -3 139 1.6 3.2 0.00 0.10 0.00 76 1034.6
20181114091635 -3 139 3.2 8.0 0.00 0.10 0.00 76 1034.7
20181114090119 -3 139 1.6 3.2 0.00 0.10 0.00 75 1034.9
20181114084613 -3 139 3.2 12.9 0.00 0.10 0.00 77 1034.9
20181114083126 -3 139 1.6 6.4 0.00 0.10 0.00 77 1034.9
20181114081541 -4 139 0.0 6.4 0.00 0.10 0.00 77 1035.0
20181114080058 -3 139 0.0 3.2 0.00 0.10 0.00 77 1035.2
20181114074558 -4 139 0.0 1.6 0.00 0.10 0.00 78 1035.3
20181114073112 -3 139 0.0 1.6 0.00 0.10 0.00 79 1035.4
20181114071536 -4 139 0.0 0.0 0.00 0.10 0.00 80 1035.4
20181114070043 -5 139 0.0 0.0 0.00 0.10 0.00 81 1035.8
20181114064519 -5 139 0.0 0.0 0.00 0.10 0.10 81 1036.1
20181114063048 -5 139 0.0 0.0 0.00 0.10 0.10 81 1036.3
20181114061604 -5 139 0.0 0.0 0.00 0.10 0.10 81 1036.4
20181114060015 -4 139 0.0 0.0 0.00 0.10 0.10 80 1036.6